Content
SEND FEEDBACK

Daily
Averages
Monthly
Summary
United States of America

HIALEAH, FLORIDA


Home > North America > United States > Florida
Elevation: 0 feet     Latitude: 25 50N     Longitude: 080 17W

WEATHER
 
SELECT A DAY
Number of Records: 188,191;   Date Range: 1/1/95 - 11/22/14
 
SHARE

PRINT THIS DATA

[ ← Previous Day ]
WEATHER ALMANAC - FEBRUARY 18, 2013
[ Next Day → ]
[ °C ]   °F
Weather ElementAverageHighLow
Temperature62.3 °F72 °F (1:53 pm)48.9 °F (4:53 am)
Dewpoint45.4 °F55.9 °F (11:53 pm)35.1 °F (3:53 am)
Humidity54.6 %65 % (11:53 pm)38 % (1:53 pm)
Barometer30.27 in30.32 in (9:53 am)30.22 in (11:53 pm)
Wind Speed10.7 mph17.3 mph (10:53 am)
Wind Gust26.5 mph (10:53 am)
Weather ElementAverage
Visibility10 mi
Wind DirectionSSE (151.8 °)

Weather ElementTotal
Precipitation---
Heating Degree Days4.6 (Base 65)
Growing Degree Days10.5 (Base 50)
Averaged from 22 records on February 18, 2013
WEATHER CONDITIONS BREAKOUT
WIND DIRECTION BREAKOUT
WEATHER BY HOUR - FEBRUARY 18, 2013
[ °C ]   °F
Local TimeTemperatureDewpointHumidityBarometerVisibilityWind DirectionWind SpeedGust SpeedPrecipitationEventsConditions
1:53 AM50.0 °F36.0 °F59 %30.30 in10.0 miNNW (340°)6.9 mphClear
2:53 AM50.0 °F36.0 °F59 %30.28 in10.0 miNNW (340°)6.9 mphClear
3:53 AM50.0 °F35.1 °F57 %30.27 in10.0 miNNW (330°)8.1 mphClear
4:53 AM48.9 °F35.1 °F59 %30.28 in10.0 miNNW (330°)3.5 mphClear
5:53 AM48.9 °F36.0 °F61 %30.28 in10.0 miNNW (330°)5.8 mphClear
7:53 AM51.1 °F36.0 °F56 %30.30 in10.0 miNNW (340°)4.6 mphPartly Cloudy
8:53 AM55.4 °F39.2 °F54 %30.31 in10.0 miVariable3.5 mphPartly Cloudy
9:53 AM63.0 °F44.1 °F50 %30.32 in10.0 miENE (60°)4.6 mphScattered Clouds
10:53 AM66.9 °F45.0 °F45 %30.32 in10.0 miEast (80°)17.3 mph26.5 mphMostly Cloudy
11:53 AM66.9 °F46.0 °F47 %30.31 in10.0 miEast (90°)13.8 mph26.5 mphMostly Cloudy
12:53 PM70.0 °F46.0 °F42 %30.29 in10.0 miENE (60°)11.5 mph21.9 mphMostly Cloudy
1:53 PM72.0 °F45.0 °F38 %30.26 in10.0 miEast (80°)13.8 mphMostly Cloudy
2:53 PM68.0 °F50.0 °F52 %30.24 in10.0 miENE (70°)15.0 mph23.0 mphMostly Cloudy
3:53 PM70.0 °F48.9 °F47 %30.24 in10.0 miESE (110°)15.0 mphMostly Cloudy
4:53 PM68.0 °F48.9 °F50 %30.25 in10.0 miEast (100°)15.0 mphMostly Cloudy
5:53 PM66.9 °F51.1 °F57 %30.24 in10.0 miEast (90°)13.8 mphMostly Cloudy
6:53 PM66.9 °F51.1 °F57 %30.24 in10.0 miEast (100°)13.8 mphScattered Clouds
7:53 PM66.9 °F52.0 °F59 %30.24 in10.0 miEast (100°)10.4 mphMostly Cloudy
8:53 PM66.9 °F54.0 °F63 %30.23 in10.0 miEast (80°)10.4 mphMostly Cloudy
9:53 PM66.9 °F54.0 °F63 %30.23 in10.0 miESE (110°)11.5 mphMostly Cloudy
10:53 PM68.0 °F54.0 °F61 %30.23 in10.0 miEast (100°)15.0 mphMostly Cloudy
11:53 PM68.0 °F55.9 °F65 %30.22 in10.0 miEast (100°)16.1 mphMostly Cloudy
Hourly data recorded from KMIA, located miles away from Hialeah, Florida







STORIES FROM OUR PARTNERS